Other Public Products
Issued by NWS Grand Forks, ND

Home | Current Version | Previous Version | Graphics & Text | Print | Product List | Glossary On
Versions: 1 2 3 4 5 6 7 8 9 10 11 12 13 14 15 16 17 18 19 20 21 22 23 24 25 26 27 28 29 30 31 32 33 34 35 36 37 38 39 40 41 42 43 44 45 46 47 48 49 50
000
FPUS83 KFGF 301531
OPUFGF
PRAIRIE TO PINES WEATHER ROUNDUP
NATIONAL WEATHER SERVICE EASTERN NORTH DAKOTA/GRAND FORKS ND
1000 AM CDT SAT AUG 30 2014

 **SATELLITE DATA USED TO AUGMENT SKY COVER AT AUTOMATED STATIONS**
 *****  WEATHER ACROSS EASTERN NORTH DAKOTA  *****

CITY           SKY/WX    TMP DP  RH WIND       PRES   REMARKS
GRAND FORKS    SUNNY     59  52  77 NE6       29.93F
GRAND FORKS AF SUNNY     58  55  89 NE5       29.95S
GRAND CITY NWS   N/A     63 N/A N/A E1          N/A
BUXTON           N/A     61  57  89 NE5         N/A
DEVILS LAKE    SUNNY     57  46  67 SE5       29.94S
FARGO          CLOUDY    56  54  93 N9        29.92S
WAHPETON ARPT  CLOUDY    59  54  82 N8        29.91S
$$

 *****  WEATHER ACROSS CENTRAL AND WESTERN NORTH DAKOTA  *****

CITY           SKY/WX    TMP DP  RH WIND       PRES   REMARKS
JAMESTOWN      SUNNY     58  53  84 VRB5      29.95S
BISMARCK       CLOUDY    55  54  96 CALM      29.95F FOG
MINOT          SUNNY     59  53  80 SE9       29.91F
MINOT AFB      SUNNY     60  56  87 SE13      29.90F
GARRISON         N/A     59  55  87 S10       29.92F
WILLISTON      SUNNY     63  54  72 S8G18     29.84F
DICKINSON      MOSUNNY   58  53  84 SE22      29.88F
HETTINGER      PTSUNNY   61  54  77 SE15G23   29.90F
$$

 *****  OTHER OBSERVATIONS NORTHEAST NORTH DAKOTA  *****

CITY           SKY/WX    TMP DP  RH WIND       PRES   REMARKS
WALHALLA         N/A     57  54  88 CALM      29.97R
LANGDON        FAIR      59  48  67 SE9       29.95F
CAVALIER       FAIR      57  50  77 NE6       29.95F
GRAFTON        FAIR      59  52  77 NE8       29.94F
CANDO          FAIR      57  50  77 SE6       29.97S
FORT TOTTEN      N/A     60  53  77 SE5       29.95S
ROLLA          FAIR      55  50  82 S12       29.97S
RUGBY          FAIR      57  50  77 S6        29.95S
 ***** THE ABOVE OBSERVATIONS ARE NON NWS ARE NOT QUALITY
        CONTROLLED AND MAY MIS-REPORT RAIN FOR SNOW...
$$

 *****  OTHER OBSERVATIONS SOUTHEAST NORTH DAKOTA *****

CITY           SKY/WX    TMP DP  RH WIND       PRES   REMARKS
COOPERSTOWN    NOT AVBL
VALLEY CITY    FAIR      63  57  82 NE8       29.95R
OAKES            N/A     63  57  82 N8        29.94S
GWINNER        SUNNY     63  57  82 N5        29.94F
BUFFALO          N/A     62  53  72 CALM        N/A
WYNDMERE       NOT AVBL
 ***** THE ABOVE OBSERVATIONS ARE NON NWS ARE NOT QUALITY
       CONTROLLED AND MAY MIS-REPORT RAIN FOR SNOW...
$$

  *****  WEATHER ACROSS NORTHERN MINNESOTA  *****

CITY           SKY/WX    TMP DP  RH WIND       PRES   REMARKS
FLAG ISLAND    PTSUNNY   57  54  88 E5        29.94S
WARROAD        MOSUNNY   63  55  77 E10       29.94F
ROSEAU         PTSUNNY   61  55  82 E8        29.94F
HALLOCK        SUNNY     63  54  72 E5        29.94S
THF RVR FALLS  CLOUDY    57  54  88 E8        29.94S
HALSTAD          N/A     58  55  90 NE5         N/A
FOSSTON        CLOUDY    61  57  88 NE8       29.92F
BAUDETTE       CLOUDY    59  52  77 E10       29.94S
WASKISH        CLOUDY    61  55  82 NE8       29.93S
CROOKSTON      PTSUNNY   57  54  88 E10       29.94S
$$
  *****  WEATHER ACROSS CENTRAL AND WEST MINNESOTA  *****

CITY           SKY/WX    TMP DP  RH WIND       PRES   REMARKS
BEMIDJI        CLOUDY    58  54  88 N10       29.91S
PARK RAPIDS    CLOUDY    59  55  87 N5        29.90R
WADENA         CLOUDY    61  57  88 NE5       29.89S
DETROIT LAKES  CLOUDY    63  55  77 NE5       29.92R
MOORHEAD       CLOUDY    59  59 100 N9        29.92S
FERGUS FALLS   CLOUDY    63  57  82 N3        29.90R
ELBOW LAKE     CLOUDY    62  59  90 CALM      29.89S
MORRIS MN      FOG       61  61 100 NW8       29.89S VSB 1
STAPLES        CLOUDY    59  57  94 N5        29.89S
WHEATON        CLOUDY    59  55  88 NW7       29.93R
$$
  *****  WEATHER ELSEWHERE ACROSS MINNESOTA  *****

CITY           SKY/WX    TMP DP  RH WIND       PRES   REMARKS
DULUTH         CLOUDY    64  60  87 N8        29.86S
INTRNTL FALLS  MOSUNNY   62  53  72 NE9       29.93R
ELY            CLOUDY    59  55  88 N5        29.89S
CLOQUET        CLOUDY    64  61  88 N3        29.87R
BRAINERD       CLOUDY    61  61 100 N5        29.89R FOG
HIBBING        CLOUDY    62  57  83 N7        29.89S
ALEXANDRIA     CLOUDY    64  60  87 N7        29.90S
SAINT CLOUD    CLOUDY    72  63  73 VRB3      29.85R
MINNEAPOLIS    PTSUNNY   70  62  76 N12       29.84R
$$

  *****  WEATHER ACROSS SOUTH DAKOTA  *****

CITY           SKY/WX    TMP DP  RH WIND       PRES   REMARKS
SIOUX FALLS    CLOUDY    66  62  87 NW12      29.93R
BROOKINGS      NOT AVBL
WATERTOWN      CLOUDY    60  57  89 NW7       29.93R
HURON          CLOUDY    61  57  87 N8        29.94S
SISSETON         N/A     62  56  80 N10       29.91S
ABERDEEN       CLOUDY    59  55  87 N9        29.94F
MITCHELL       CLOUDY    61  58  90 NW7       29.96S
PIERRE         MOSUNNY   61  56  83 SE9       29.95F
MOBRIDGE       PTSUNNY   59  57  93 S8        29.93F
RAPID CITY     SUNNY     62  57  83 SE13      29.91F
$$

  *****  SOME WEATHER IN NEARBY STATES *****

CITY           SKY/WX    TMP DP  RH WIND       PRES   REMARKS
GLASGOW MT     PTSUNNY   59  56  89 SE6       29.72R
GREAT FALLS MT CLOUDY    64  45  49 SW9       29.81F
CHEYENNE WY    SUNNY     65  50  58 SW7       30.10F
SCOTTSBLUFF NE SUNNY     68  56  65 SE9       29.98F
OMAHA NE       CLOUDY    67  64  90 NW8       29.95R FOG
DES MOINES IA  PTSUNNY   72  65  78 NW7       29.89R
DAVENPORT IA   CLOUDY    71  66  84 W12       29.87R
CHICAGO IL     PTSUNNY   77  66  68 SW14      29.85S
EAU CLAIRE WI  PTSUNNY   70  66  87 N6        29.79S
LA CROSSE WI   CLOUDY    72  67  84 NW8       29.79R
$$

  *****  SOME NATIONAL WEATHER *****

CITY           SKY/WX    TMP DP  RH WIND       PRES   REMARKS
LA GUARDIA NY  MOSUNNY   75  55  49 S10       30.25F
RALEIGH NC     MOSUNNY   79  71  76 CALM      30.23F
ATLANTA GA     PTSUNNY   82  72  71 VRB5      30.17S
NEW ORLEANS LA LGT RAIN  80  73  79 S13G22    30.03R
OKLAHOMA CITY  MOSUNNY   83  68  60 W10       29.97R
ALBUQUERQUE NM PTSUNNY   68  44  42 NW3       30.20R
SALT LAKE CITY CLOUDY    75  42  30 SE9       29.94R
LOS ANGELES CA MOSUNNY   69  64  84 SE3       29.84R
BOISE ID       CLOUDY    64  43  46 NW9       29.92R
SEATTLE WA     CLOUDY    61  56  83 CALM      29.93S
$$

*** WEATHER ACROSS MANITOBA...SASKATCHEWAN AND ONTARIO ***
                ***ONTARIO***

CITY           SKY/WX    TMP DP  RH WIND       PRES   REMARKS
GERALDTON      CLOUDY    59  55  88 NE15      29.89S
THUNDER BAY    CLOUDY    63  59  88 NE6       29.85S
SIOUX LOOKOUT  PTSUNNY   59  54  82 NE3       29.95
TORONTO        PTSUNNY   70  64  83 SE8       30.02F
BIG TROUT LK   SUNNY     55  37  50 W7        29.96S
PICKLE LAKE    PTSUNNY   55  48  76 E8        29.97S
DRYDEN         MOSUNNY   61  52  72 NE9       29.95S
KENORA         CLOUDY    54  52  94 E7        29.97S
$$
                *** MANITOBA***

CITY           SKY/WX    TMP DP  RH WIND       PRES   REMARKS
BRANDON        SUNNY     57  48  72 S6        29.95S
DAUPHIN        SUNNY     59  52  77 E5        29.91F
ISLAND LAKE    MOSUNNY   55  45  67 CALM      29.98S
PILOT MOUND      N/A     57  50  77 S6          N/A
THE PAS        MOSUNNY   61  50  67 SE15      29.83F
THOMPSON       PTSUNNY   55  45  67 S5        29.91F
WINNIPEG       SUNNY     59  52  77 VRB3      29.96S
LYNN LAKE      SUNNY     55  45  67 MISG      29.84
CHURCHILL      MOSUNNY   52  41  66 NW14G20   29.83S
GILLAM         PTSUNNY   55  45  67 W10       29.91F
$$
                ***SASKATCHEWAN***

CITY           SKY/WX    TMP DP  RH WIND       PRES   REMARKS
ESTEVAN        PTSUNNY   63  54  72 S13       29.84F
KINDERSLEY     PTSUNNY   61  54  77 NW9       29.63S
LLOYDMINSTER   PTSUNNY   57  52  82 NW13G20   29.64S
PRINCE ALBERT  CLOUDY    55  54  94 SE12G17   29.62F
REGINA         PTSUNNY   61  54  77 SE22G30   29.72F
YORKTON        SUNNY     59  50  72 S13       29.82F


USA.gov is the U.S. government's official web portal to all federal, state and local government web resources and services.